Weather History for Bend, OR

Change the Weather History Date:

Friday, November 9, 2012

  Actual Average (KRDM) Record (KRDM)
Temperature  
Mean Temperature 32 °F 40 °F  
Max Temperature 39 °F 52 °F 69 °F (1996)
Min Temperature 26 °F 27 °F 12 °F (1975)
Degree Days  
Heating Degree Days 32 25  
Month to date heating degree days 216  
Since 1 July heating degree days 1161  
Cooling Degree Days 0 0  
Month to date cooling degree days 0  
Year to date cooling degree days 222  
Moisture  
Dew Point 21 °F    
Average Humidity 65    
Maximum Humidity 86    
Minimum Humidity 30    
Precipitation  
Precipitation 1.09 in 0.04 in 0.81 in (1984)
Month to date precipitation 0.28  
Year to date precipitation 7.06  
Sea Level Pressure  
Sea Level Pressure 29.78 in    
Wind  
Wind Speed 3 mph (WNW)    
Max Wind Speed 12 mph    
Max Gust Speed -    
Visibility 8 miles    
Events Snow , Thunderstorm    
T = Trace of Precipitation, MM = Missing Value Source: NWS Daily Summary

Daily Weather History Graph

Daily Weather History Graph

Search for Another Location

Airport:

Trip Planner

Search our weather history database for the weather conditions in past years. The results will help you decide how hot, cold, wet, or windy it might be!

Date:

Astronomy

Nov. 09, 2012 Rise Set
Actual Time 6:52 AM PST 4:43 PM PST
Civil Twilight 6:22 AM PST 5:14 PM PST
Nautical Twilight 5:47 AM PST 5:49 PM PST
Astronomical Twilight 5:13 AM PST 6:23 PM PST
Moon 1:47 AM PST (11/9) 2:08 PM PST (11/9)
Length of Visible Light 10h 52m
Length of Day
9h 51m
Waning Crescent, 22% of the Moon is Illuminated
Nov 9
Waning Crescent
Nov 13
New
Nov 20
First Quarter
Nov 28
Full
Dec 6
Last Quarter

Hourly Weather History & Observations

Time (PST) Temp. Windchill Dew Point Humidity Pressure Visibility Wind Dir Wind Speed Gust Speed Precip Events Conditions
12:15 AM 32.0 °F 27.5 °F 26.6 °F 80% 29.75 in 6.0 mi WNW 4.6 mph - N/A Snow Light Snow
12:35 AM 32.0 °F 27.5 °F 26.6 °F 80% 29.75 in 5.0 mi West 4.6 mph - N/A Snow Light Snow
12:55 AM 32.0 °F 27.5 °F 26.6 °F 80% 29.75 in 5.0 mi WSW 4.6 mph - N/A Snow Light Snow
1:15 AM 32.0 °F 27.5 °F 26.6 °F 80% 29.75 in 8.0 mi WSW 4.6 mph - N/A   Scattered Clouds
1:35 AM 32.0 °F 28.7 °F 26.6 °F 80% 29.76 in 10.0 mi SW 3.5 mph - N/A   Mostly Cloudy
1:55 AM 32.0 °F 27.5 °F 26.6 °F 80% 29.76 in 10.0 mi SW 4.6 mph - N/A   Mostly Cloudy
2:15 AM 32.0 °F 27.5 °F 24.8 °F 75% 29.76 in 10.0 mi SW 4.6 mph - N/A   Partly Cloudy
2:35 AM 32.0 °F - 24.8 °F 75% 29.77 in 10.0 mi Calm Calm - N/A   Clear
3:15 AM 32.0 °F - 24.8 °F 75% 29.77 in 9.0 mi Calm Calm - N/A   Mostly Cloudy
3:35 AM 32.0 °F 28.7 °F 24.8 °F 75% 29.77 in 6.0 mi West 3.5 mph - N/A Snow Light Snow
4:15 AM 32.0 °F 28.7 °F 24.8 °F 75% 29.77 in 10.0 mi WNW 3.5 mph - N/A Snow Light Snow
4:35 AM 32.0 °F - 24.8 °F 75% 29.78 in 3.0 mi Calm Calm - 0.02 in Snow Light Snow
4:55 AM 32.0 °F - 24.8 °F 75% 29.78 in 3.0 mi Calm Calm - 0.07 in Snow , Thunderstorm Light Snow
5:15 AM 32.0 °F - 24.8 °F 75% 29.78 in 5.0 mi Calm Calm - 0.01 in Snow Light Snow
5:35 AM 32.0 °F - 24.8 °F 75% 29.78 in 2.5 mi Calm Calm - 0.06 in Snow Light Snow
5:55 AM 32.0 °F - 24.8 °F 75% 29.78 in 9.0 mi Calm Calm - 0.07 in Snow Light Snow
6:15 AM 30.2 °F - 24.8 °F 80% 29.78 in 10.0 mi Calm Calm - N/A   Mostly Cloudy
6:35 AM 30.2 °F - 24.8 °F 80% 29.78 in 10.0 mi Calm Calm - N/A Thunderstorm Mostly Cloudy
7:15 AM 28.4 °F - 24.8 °F 86% 29.79 in 5.0 mi Calm Calm - N/A   Haze
7:35 AM 26.6 °F - 23.0 °F 86% 29.79 in 7.0 mi Calm Calm - N/A   Mostly Cloudy
7:55 AM 28.4 °F - 23.0 °F 80% 29.80 in 7.0 mi Calm Calm - N/A   Clear
8:15 AM 28.4 °F - 23.0 °F 80% 29.80 in 7.0 mi Calm Calm - N/A   Partly Cloudy
8:35 AM 32.0 °F - 24.8 °F 75% 29.80 in 8.0 mi Calm Calm - N/A   Mostly Cloudy
8:55 AM 32.0 °F - 26.6 °F 80% 29.81 in 9.0 mi Calm Calm - N/A   Overcast
9:15 AM 32.0 °F - 24.8 °F 75% 29.80 in 8.0 mi Calm Calm - N/A   Overcast
9:35 AM 32.0 °F 28.7 °F 23.0 °F 69% 29.81 in 10.0 mi NNW 3.5 mph - N/A   Mostly Cloudy
9:55 AM 32.0 °F - 21.2 °F 64% 29.81 in 10.0 mi Calm Calm - N/A   Mostly Cloudy
10:15 AM 33.8 °F 30.8 °F 19.4 °F 56% 29.81 in 10.0 mi North 3.5 mph - N/A   Mostly Cloudy
10:35 AM 35.6 °F 30.7 °F 19.4 °F 52% 29.81 in 10.0 mi NW 5.8 mph - N/A   Scattered Clouds
10:55 AM 33.8 °F 27.0 °F 19.4 °F 56% 29.80 in 10.0 mi NNW 8.1 mph - N/A   Partly Cloudy
11:15 AM 35.6 °F 31.7 °F 17.6 °F 48% 29.80 in 10.0 mi WNW 4.6 mph - N/A   Scattered Clouds
11:35 AM 35.6 °F 29.9 °F 19.4 °F 52% 29.80 in 10.0 mi WNW 6.9 mph - N/A   Partly Cloudy
11:55 AM 37.4 °F 30.8 °F 19.4 °F 48% 29.79 in 10.0 mi WNW 9.2 mph - N/A   Partly Cloudy
12:15 PM 37.4 °F 29.8 °F 15.8 °F 41% 29.78 in 10.0 mi NW 11.5 mph - N/A   Scattered Clouds
12:35 PM 35.6 °F 29.2 °F 14.0 °F 41% 29.78 in 10.0 mi NNW 8.1 mph - N/A   Partly Cloudy
12:55 PM 37.4 °F 33.8 °F 14.0 °F 38% 29.77 in 10.0 mi WSW 4.6 mph - N/A   Partly Cloudy
1:15 PM 37.4 °F 32.8 °F 10.4 °F 33% 29.77 in 10.0 mi WNW 5.8 mph - N/A   Mostly Cloudy
1:55 PM 39.2 °F 35.0 °F 12.2 °F 33% 29.76 in 10.0 mi SW 5.8 mph - N/A   Overcast
2:35 PM 37.4 °F 32.8 °F 8.6 °F 30% 29.76 in 10.0 mi NW 5.8 mph - N/A Thunderstorm Mostly Cloudy
2:55 PM 37.4 °F 32.8 °F 8.6 °F 30% 29.76 in 10.0 mi WNW 5.8 mph - N/A   Partly Cloudy
3:15 PM 35.6 °F 31.7 °F 10.4 °F 35% 29.76 in 10.0 mi WNW 4.6 mph - N/A   Scattered Clouds
3:35 PM 35.6 °F 32.8 °F 10.4 °F 35% 29.76 in 10.0 mi West 3.5 mph - N/A   Partly Cloudy
3:55 PM 35.6 °F - 12.2 °F 38% 29.76 in 10.0 mi Calm Calm - N/A   Scattered Clouds
4:15 PM 35.6 °F 32.8 °F 15.8 °F 44% 29.76 in 10.0 mi WSW 3.5 mph - N/A   Scattered Clouds
4:35 PM 35.6 °F - 14.0 °F 41% 29.76 in 10.0 mi Calm Calm - N/A   Mostly Cloudy
4:55 PM 35.6 °F - 14.0 °F 41% 29.77 in 10.0 mi Calm Calm - N/A   Mostly Cloudy
5:15 PM 33.8 °F - 12.2 °F 41% 29.77 in 10.0 mi Calm Calm - N/A   Mostly Cloudy
5:35 PM 33.8 °F - 14.0 °F 44% 29.77 in 10.0 mi Calm Calm - N/A   Mostly Cloudy
5:55 PM 32.0 °F - 15.8 °F 51% 29.78 in 10.0 mi Calm Calm - N/A   Mostly Cloudy
6:15 PM 32.0 °F - 15.8 °F 51% 29.78 in 10.0 mi Calm Calm - N/A   Mostly Cloudy
6:35 PM 30.2 °F - 15.8 °F 55% 29.78 in 10.0 mi Calm Calm - N/A   Scattered Clouds
6:55 PM 32.0 °F - 17.6 °F 55% 29.79 in 10.0 mi Calm Calm - N/A   Mostly Cloudy
7:15 PM 32.0 °F 28.7 °F 23.0 °F 69% 29.79 in 4.0 mi NNW 3.5 mph - N/A Snow Light Snow
7:35 PM 30.2 °F 25.4 °F 24.8 °F 80% 29.79 in 3.0 mi North 4.6 mph - 0.01 in Snow Light Snow
7:55 PM 30.2 °F - 24.8 °F 80% 29.79 in 3.0 mi Calm Calm - 0.03 in Snow Light Snow
8:15 PM 30.2 °F - 24.8 °F 80% 29.79 in 5.0 mi Calm Calm - 0.02 in Snow Light Snow
8:35 PM 30.2 °F - 24.8 °F 80% 29.80 in 9.0 mi Calm Calm - 0.04 in Snow Light Snow
8:55 PM 30.2 °F - 24.8 °F 80% 29.80 in 9.0 mi Calm Calm - 0.04 in Snow Light Snow
9:15 PM 30.2 °F - 24.8 °F 80% 29.80 in 10.0 mi Calm Calm - N/A   Overcast
9:35 PM 30.2 °F - 24.8 °F 80% 29.80 in 5.0 mi Calm Calm - N/A Snow Light Snow
9:55 PM 30.2 °F - 24.8 °F 80% 29.80 in 1.5 mi Calm Calm - 0.05 in Snow Light Snow
10:15 PM 30.2 °F - 24.8 °F 80% 29.80 in 1.0 mi Calm Calm - 0.15 in Snow Light Snow
10:35 PM 30.2 °F - 24.8 °F 80% 29.80 in 1.2 mi Calm Calm - 0.29 in Snow Light Snow
10:55 PM 28.4 °F - 24.8 °F 86% 29.80 in 2.5 mi Calm Calm - 0.35 in Snow Light Snow
11:15 PM 28.4 °F - 24.8 °F 86% 29.80 in 1.0 mi Calm Calm - 0.18 in Snow Light Snow
11:35 PM 28.4 °F - 24.8 °F 86% 29.81 in 1.2 mi Calm Calm - 0.32 in Snow Light Snow
11:55 PM 28.4 °F - 24.8 °F 86% 29.81 in 1.2 mi Calm Calm - 0.48 in Snow Light Snow